| time (UTC) | temp C | wind direction | speed KPH | gust KPH | rain 1hr cm | rain 24hr cm | rain mn cm | humidity % | barometer mb |
| 20260502234014 | 8 | 307 | 6.4 | 12.9 | 0.00 | 0.00 | 0.00 | 39 | 1001.2 |
| 20260502233514 | 8 | 292 | 8.0 | 12.9 | 0.00 | 0.00 | 0.00 | 38 | 1001.1 |
| 20260502233014 | 8 | 290 | 9.7 | 16.1 | 0.00 | 0.00 | 0.00 | 37 | 1001.2 |
| 20260502232514 | 8 | 310 | 9.7 | 14.5 | 0.00 | 0.00 | 0.00 | 37 | 1001.1 |
| 20260502232014 | 8 | 306 | 9.7 | 16.1 | 0.00 | 0.00 | 0.00 | 37 | 1001.1 |
| 20260502231514 | 8 | 329 | 8.0 | 16.1 | 0.00 | 0.00 | 0.00 | 36 | 1001.2 |
| 20260502231014 | 9 | 329 | 6.4 | 17.7 | 0.00 | 0.00 | 0.00 | 37 | 1001.2 |
| 20260502230514 | 8 | 284 | 8.0 | 11.3 | 0.00 | 0.00 | 0.00 | 37 | 1001.1 |
| 20260502230014 | 8 | 302 | 11.3 | 20.9 | 0.00 | 0.00 | 0.00 | 37 | 1001.2 |
| 20260502225514 | 8 | 311 | 11.3 | 22.5 | 0.00 | 0.00 | 0.00 | 37 | 1001.2 |
| 20260502225014 | 9 | 310 | 11.3 | 19.3 | 0.00 | 0.00 | 0.00 | 37 | 1001.3 |
| 20260502224514 | 9 | 332 | 11.3 | 19.3 | 0.00 | 0.00 | 0.00 | 37 | 1001.2 |
| 20260502224015 | 9 | 302 | 9.7 | 19.3 | 0.00 | 0.00 | 0.00 | 37 | 1001.3 |
| 20260502223514 | 9 | 288 | 9.7 | 17.7 | 0.00 | 0.00 | 0.00 | 37 | 1001.3 |
| 20260502223015 | 9 | 285 | 9.7 | 16.1 | 0.00 | 0.00 | 0.00 | 37 | 1001.3 |
| 20260502222514 | 9 | 297 | 9.7 | 19.3 | 0.00 | 0.00 | 0.00 | 36 | 1001.3 |
| 20260502222014 | 9 | 300 | 8.0 | 17.7 | 0.00 | 0.00 | 0.00 | 36 | 1001.3 |
| 20260502221514 | 9 | 327 | 8.0 | 12.9 | 0.00 | 0.00 | 0.00 | 37 | 1001.3 |
| 20260502221014 | 9 | 336 | 8.0 | 17.7 | 0.00 | 0.00 | 0.00 | 36 | 1001.3 |
| 20260502220514 | 9 | 313 | 4.8 | 16.1 | 0.00 | 0.00 | 0.00 | 36 | 1001.3 |
| 20260502220014 | 9 | 322 | 6.4 | 6.4 | 0.00 | 0.00 | 0.00 | 35 | 1001.3 |
| 20260502215514 | 10 | 355 | 8.0 | 17.7 | 0.00 | 0.00 | 0.00 | 36 | 1001.4 |
| 20260502215014 | 10 | 355 | 8.0 | 14.5 | 0.00 | 0.00 | 0.00 | 38 | 1001.4 |
| 20260502214514 | 10 | 302 | 11.3 | 19.3 | 0.00 | 0.00 | 0.00 | 35 | 1001.3 |
| 20260502214016 | 10 | 312 | 12.9 | 22.5 | 0.00 | 0.00 | 0.00 | 37 | 1001.4 |
| 20260502213516 | 10 | 333 | 11.3 | 20.9 | 0.00 | 0.00 | 0.00 | 37 | 1001.4 |
| 20260502213016 | 10 | 306 | 8.0 | 20.9 | 0.00 | 0.00 | 0.00 | 36 | 1001.5 |
| 20260502212516 | 10 | 5 | 6.4 | 9.7 | 0.00 | 0.00 | 0.00 | 37 | 1001.5 |
| 20260502211515 | 10 | 0 | 4.8 | 6.4 | 0.00 | 0.00 | 0.00 | 37 | 1001.5 |
| 20260502211018 | 9 | 11 | 4.8 | 14.5 | 0.00 | 0.00 | 0.00 | 38 | 1001.6 |
| 20260502210515 | 10 | 29 | 8.0 | 6.4 | 0.00 | 0.00 | 0.00 | 36 | 1001.6 |
| 20260502210015 | 10 | 9 | 9.7 | 20.9 | 0.00 | 0.00 | 0.00 | 35 | 1001.7 |
| 20260502205515 | 10 | 300 | 4.8 | 14.5 | 0.00 | 0.00 | 0.00 | 36 | 1001.7 |
| 20260502205014 | 10 | 53 | 6.4 | 4.8 | 0.00 | 0.00 | 0.00 | 37 | 1001.6 |
| 20260502204515 | 10 | 355 | 9.7 | 19.3 | 0.00 | 0.00 | 0.00 | 35 | 1001.8 |
| 20260502204015 | 10 | 291 | 9.7 | 16.1 | 0.00 | 0.00 | 0.00 | 35 | 1001.8 |
| 20260502203515 | 10 | 328 | 9.7 | 19.3 | 0.00 | 0.00 | 0.00 | 33 | 1001.8 |
| 20260502203015 | 10 | 286 | 9.7 | 19.3 | 0.00 | 0.00 | 0.00 | 35 | 1001.8 |
| 20260502202515 | 10 | 315 | 8.0 | 22.5 | 0.00 | 0.00 | 0.00 | 34 | 1001.9 |
| 20260502202015 | 10 | 283 | 11.3 | 17.7 | 0.00 | 0.00 | 0.00 | 33 | 1001.9 |
| 20260502201515 | 10 | 298 | 14.5 | 19.3 | 0.00 | 0.00 | 0.00 | 34 | 1002.0 |
| 20260502201015 | 10 | 286 | 12.9 | 25.7 | 0.00 | 0.00 | 0.00 | 32 | 1002.0 |
| 20260502200515 | 10 | 296 | 11.3 | 20.9 | 0.00 | 0.00 | 0.00 | 34 | 1002.1 |
| 20260502200015 | 10 | 294 | 12.9 | 25.7 | 0.00 | 0.00 | 0.00 | 32 | 1002.1 |
| 20260502195517 | 10 | 294 | 9.7 | 20.9 | 0.00 | 0.00 | 0.00 | 33 | 1002.2 |
| 20260502195015 | 10 | 294 | 8.0 | 14.5 | 0.00 | 0.00 | 0.00 | 31 | 1002.2 |
| 20260502194515 | 10 | 261 | 9.7 | 20.9 | 0.00 | 0.00 | 0.00 | 34 | 1002.3 |
| 20260502193515 | 10 | 284 | 11.3 | 17.7 | 0.00 | 0.00 | 0.00 | 31 | 1002.5 |
| 20260502193016 | 10 | 321 | 12.9 | 20.9 | 0.00 | 0.00 | 0.00 | 32 | 1002.6 |
| 20260502192515 | 10 | 294 | 14.5 | 32.2 | 0.00 | 0.00 | 0.00 | 32 | 1002.6 |
| 20260502192015 | 10 | 313 | 11.3 | 22.5 | 0.00 | 0.00 | 0.00 | 32 | 1002.5 |
| 20260502191515 | 10 | 303 | 11.3 | 20.9 | 0.00 | 0.00 | 0.00 | 32 | 1002.6 |
| 20260502191015 | 9 | 284 | 12.9 | 27.4 | 0.00 | 0.00 | 0.00 | 34 | 1002.6 |
| 20260502190515 | 10 | 297 | 9.7 | 27.4 | 0.00 | 0.00 | 0.00 | 33 | 1002.7 |
| 20260502190015 | 10 | 345 | 9.7 | 17.7 | 0.00 | 0.00 | 0.00 | 37 | 1002.7 |
| 20260502185515 | 9 | 17 | 11.3 | 20.9 | 0.00 | 0.00 | 0.00 | 37 | 1002.8 |
| 20260502185015 | 9 | 279 | 9.7 | 20.9 | 0.00 | 0.00 | 0.00 | 33 | 1002.9 |
| 20260502184515 | 8 | 324 | 8.0 | 17.7 | 0.00 | 0.00 | 0.00 | 38 | 1002.9 |
| 20260502184015 | 8 | 333 | 9.7 | 12.9 | 0.00 | 0.00 | 0.00 | 38 | 1002.8 |
| 20260502183515 | 9 | 345 | 11.3 | 24.1 | 0.00 | 0.00 | 0.00 | 38 | 1002.8 |
| 20260502183015 | 8 | 331 | 9.7 | 19.3 | 0.00 | 0.00 | 0.00 | 36 | 1002.8 |
| 20260502182515 | 8 | 14 | 8.0 | 19.3 | 0.00 | 0.00 | 0.00 | 37 | 1002.9 |
| 20260502182015 | 8 | 9 | 6.4 | 12.9 | 0.00 | 0.00 | 0.00 | 39 | 1002.7 |
| 20260502181515 | 8 | 5 | 8.0 | 12.9 | 0.00 | 0.00 | 0.00 | 38 | 1002.8 |
| 20260502181015 | 8 | 355 | 9.7 | 20.9 | 0.00 | 0.00 | 0.00 | 36 | 1002.8 |
| 20260502180515 | 8 | 333 | 6.4 | 20.9 | 0.00 | 0.00 | 0.00 | 37 | 1002.8 |
| 20260502170515 | 6 | 334 | 4.8 | 12.9 | 0.00 | 0.00 | 0.00 | 54 | 1003.4 |
| 20260502164015 | 6 | 331 | 9.7 | 12.9 | 0.00 | 0.00 | 0.00 | 54 | 1003.6 |
| 20260502163515 | 6 | 20 | 8.0 | 19.3 | 0.00 | 0.00 | 0.00 | 52 | 1003.5 |
| 20260502163015 | 7 | 324 | 6.4 | 17.7 | 0.00 | 0.00 | 0.00 | 52 | 1003.6 |
| 20260502162515 | 7 | 347 | 6.4 | 14.5 | 0.00 | 0.00 | 0.00 | 52 | 1003.6 |
| 20260502162015 | 6 | 355 | 8.0 | 12.9 | 0.00 | 0.00 | 0.00 | 53 | 1003.7 |
| 20260502161515 | 7 | 350 | 11.3 | 17.7 | 0.00 | 0.00 | 0.00 | 52 | 1003.7 |
| 20260502161015 | 6 | 327 | 11.3 | 17.7 | 0.00 | 0.00 | 0.00 | 52 | 1003.7 |
| 20260502160515 | 6 | 309 | 9.7 | 16.1 | 0.00 | 0.00 | 0.00 | 50 | 1003.8 |
| 20260502152016 | 6 | 279 | 12.9 | 25.7 | 0.00 | 0.00 | 0.00 | 52 | 1003.8 |
| 20260502151516 | 6 | 292 | 11.3 | 20.9 | 0.00 | 0.00 | 0.00 | 51 | 1004.0 |
| 20260502151016 | 6 | 340 | 11.3 | 22.5 | 0.00 | 0.00 | 0.00 | 52 | 1004.0 |
| 20260502150516 | 6 | 308 | 11.3 | 24.1 | 0.00 | 0.00 | 0.00 | 51 | 1004.0 |
| 20260502130516 | 1 | 284 | 16.1 | 19.3 | 0.00 | 0.00 | 0.00 | 80 | 1004.8 |
| 20260502123516 | 1 | 294 | 14.5 | 17.7 | 0.00 | 0.00 | 0.00 | 83 | 1004.8 |
| 20260502123016 | 0 | 294 | 14.5 | 19.3 | 0.00 | 0.00 | 0.00 | 83 | 1004.9 |
| 20260502122516 | 0 | 297 | 14.5 | 19.3 | 0.00 | 0.00 | 0.00 | 84 | 1004.8 |
| 20260502122017 | 0 | 315 | 14.5 | 19.3 | 0.00 | 0.00 | 0.00 | 85 | 1004.8 |
| 20260502121516 | 0 | 302 | 14.5 | 20.9 | 0.00 | 0.00 | 0.00 | 85 | 1004.9 |
| 20260502121016 | 0 | 299 | 14.5 | 19.3 | 0.00 | 0.00 | 0.00 | 85 | 1004.8 |
| 20260502120516 | 0 | 298 | 14.5 | 19.3 | 0.00 | 0.00 | 0.00 | 86 | 1004.8 |
| 20260502115516 | 0 | 295 | 12.9 | 19.3 | 0.00 | 0.00 | 0.00 | 86 | 1004.8 |
| 20260502115016 | -1 | 294 | 12.9 | 16.1 | 0.00 | 0.03 | 0.00 | 87 | 1004.8 |
| 20260502114516 | -1 | 293 | 11.3 | 19.3 | 0.00 | 0.03 | 0.00 | 87 | 1004.8 |
| 20260502114017 | -1 | 297 | 11.3 | 16.1 | 0.00 | 0.03 | 0.00 | 87 | 1004.8 |
| 20260502113516 | -1 | 303 | 9.7 | 16.1 | 0.00 | 0.03 | 0.00 | 88 | 1004.7 |
| 20260502113017 | -2 | 290 | 8.0 | 14.5 | 0.00 | 0.03 | 0.00 | 88 | 1004.6 |
| 20260502112517 | -2 | 290 | 6.4 | 11.3 | 0.00 | 0.03 | 0.00 | 88 | 1004.5 |
| 20260502112017 | -2 | 286 | 6.4 | 11.3 | 0.00 | 0.03 | 0.00 | 88 | 1004.6 |
| 20260502111516 | -2 | 298 | 6.4 | 9.7 | 0.00 | 0.03 | 0.00 | 89 | 1004.5 |
| 20260502111017 | -2 | 283 | 6.4 | 9.7 | 0.00 | 0.03 | 0.00 | 89 | 1004.5 |
| 20260502110517 | -2 | 282 | 6.4 | 9.7 | 0.00 | 0.03 | 0.00 | 88 | 1004.5 |
| 20260502110017 | -2 | 288 | 4.8 | 6.4 | 0.00 | 0.03 | 0.00 | 88 | 1004.4 |
| 20260502105517 | -2 | 286 | 4.8 | 6.4 | 0.00 | 0.03 | 0.00 | 88 | 1004.5 |
| 20260502105017 | -2 | 286 | 4.8 | 6.4 | 0.00 | 0.03 | 0.00 | 88 | 1004.5 |
| 20260502104517 | -2 | 286 | 4.8 | 6.4 | 0.00 | 0.03 | 0.00 | 89 | 1004.6 |
| 20260502104017 | -2 | 286 | 4.8 | 6.4 | 0.00 | 0.03 | 0.00 | 88 | 1004.6 |
| 20260502103517 | -2 | 284 | 4.8 | 6.4 | 0.00 | 0.03 | 0.00 | 88 | 1004.6 |
| 20260502103017 | -2 | 285 | 6.4 | 6.4 | 0.00 | 0.03 | 0.00 | 88 | 1004.6 |
| 20260502102517 | -2 | 285 | 6.4 | 11.3 | 0.00 | 0.03 | 0.00 | 88 | 1004.6 |
| 20260502102017 | -2 | 281 | 6.4 | 9.7 | 0.00 | 0.03 | 0.00 | 88 | 1004.5 |
| 20260502101517 | -2 | 284 | 6.4 | 8.0 | 0.00 | 0.03 | 0.00 | 87 | 1004.6 |
| 20260502101017 | -2 | 284 | 6.4 | 8.0 | 0.00 | 0.03 | 0.00 | 87 | 1004.5 |
| 20260502100517 | -2 | 290 | 6.4 | 9.7 | 0.00 | 0.03 | 0.00 | 87 | 1004.6 |
| 20260502091517 | -2 | 290 | 4.8 | 6.4 | 0.00 | 0.03 | 0.00 | 87 | 1004.3 |
| 20260502091017 | -2 | 284 | 4.8 | 6.4 | 0.00 | 0.03 | 0.00 | 87 | 1004.3 |
| 20260502090517 | -2 | 286 | 6.4 | 9.7 | 0.00 | 0.03 | 0.00 | 87 | 1004.3 |
| 20260502071518 | -2 | 279 | 3.2 | 4.8 | 0.00 | 0.03 | 0.00 | 86 | 1004.2 |
| 20260502071017 | -1 | 289 | 4.8 | 4.8 | 0.00 | 0.03 | 0.00 | 86 | 1004.1 |
| 20260502070517 | -1 | 293 | 4.8 | 6.4 | 0.00 | 0.03 | 0.03 | 85 | 1004.1 |
| 20260502070017 | -1 | 298 | 4.8 | 8.0 | 0.00 | 0.03 | 0.03 | 85 | 1004.2 |
| 20260502065517 | -1 | 309 | 6.4 | 8.0 | 0.00 | 0.03 | 0.03 | 85 | 1004.3 |
| 20260502065017 | -1 | 298 | 6.4 | 11.3 | 0.00 | 0.03 | 0.03 | 84 | 1004.4 |
| 20260502064517 | -1 | 302 | 6.4 | 12.9 | 0.00 | 0.03 | 0.03 | 84 | 1004.3 |
| 20260502064018 | -1 | 293 | 6.4 | 8.0 | 0.00 | 0.03 | 0.03 | 85 | 1004.5 |
| 20260502063518 | -1 | 327 | 6.4 | 12.9 | 0.00 | 0.03 | 0.03 | 85 | 1004.4 |
| 20260502063017 | -1 | 319 | 6.4 | 11.3 | 0.00 | 0.03 | 0.03 | 86 | 1004.5 |
| 20260502062518 | -1 | 293 | 4.8 | 8.0 | 0.00 | 0.03 | 0.03 | 86 | 1004.5 |
| 20260502062018 | -1 | 300 | 4.8 | 6.4 | 0.00 | 0.03 | 0.03 | 85 | 1004.5 |
| 20260502061518 | -1 | 296 | 4.8 | 6.4 | 0.00 | 0.03 | 0.03 | 83 | 1004.5 |
| 20260502061018 | 0 | 300 | 4.8 | 8.0 | 0.00 | 0.03 | 0.03 | 82 | 1004.4 |
| 20260502060518 | 0 | 309 | 4.8 | 8.0 | 0.00 | 0.03 | 0.03 | 81 | 1004.4 |
| 20260502060018 | 0 | 327 | 4.8 | 8.0 | 0.00 | 0.03 | 0.03 | 81 | 1004.4 |
| 20260502055518 | 0 | 339 | 3.2 | 6.4 | 0.00 | 0.03 | 0.03 | 81 | 1004.4 |
| 20260502055018 | 0 | 329 | 3.2 | 4.8 | 0.00 | 0.03 | 0.03 | 81 | 1004.5 |
| 20260502054518 | 0 | 331 | 4.8 | 6.4 | 0.00 | 0.03 | 0.03 | 81 | 1004.5 |
| 20260502054018 | 0 | 330 | 3.2 | 6.4 | 0.00 | 0.03 | 0.03 | 81 | 1004.5 |
| 20260502053518 | 0 | 311 | 3.2 | 4.8 | 0.00 | 0.03 | 0.03 | 81 | 1004.5 |
| 20260502053019 | 0 | 300 | 4.8 | 6.4 | 0.00 | 0.03 | 0.03 | 81 | 1004.5 |
| 20260502052518 | 0 | 312 | 4.8 | 6.4 | 0.00 | 0.03 | 0.03 | 81 | 1004.5 |
| 20260502052018 | 0 | 300 | 3.2 | 6.4 | 0.00 | 0.03 | 0.03 | 80 | 1004.5 |
| 20260502051518 | 0 | 300 | 4.8 | 4.8 | 0.00 | 0.03 | 0.03 | 80 | 1004.5 |
| 20260502051018 | 0 | 325 | 4.8 | 8.0 | 0.00 | 0.03 | 0.03 | 80 | 1004.5 |
| 20260502050518 | 0 | 317 | 3.2 | 8.0 | 0.00 | 0.03 | 0.03 | 80 | 1004.5 |
| 20260502050018 | 0 | 313 | 3.2 | 4.8 | 0.00 | 0.03 | 0.03 | 80 | 1004.4 |
| 20260502045518 | 0 | 331 | 3.2 | 6.4 | 0.00 | 0.03 | 0.03 | 79 | 1004.4 |
| 20260502045018 | 0 | 311 | 3.2 | 8.0 | 0.00 | 0.03 | 0.03 | 79 | 1004.4 |
| 20260502044518 | 0 | 326 | 3.2 | 6.4 | 0.00 | 0.03 | 0.03 | 78 | 1004.3 |
| 20260502044018 | 0 | 340 | 3.2 | 6.4 | 0.00 | 0.03 | 0.03 | 78 | 1004.3 |
| 20260502043518 | 0 | 347 | 3.2 | 4.8 | 0.00 | 0.03 | 0.03 | 78 | 1004.4 |
| 20260502043018 | 0 | 321 | 3.2 | 4.8 | 0.00 | 0.03 | 0.03 | 78 | 1004.4 |
| 20260502042518 | 0 | 320 | 3.2 | 4.8 | 0.00 | 0.03 | 0.03 | 78 | 1004.4 |
| 20260502042018 | 0 | 333 | 3.2 | 6.4 | 0.00 | 0.03 | 0.03 | 78 | 1004.4 |
| 20260502041518 | 1 | 329 | 3.2 | 6.4 | 0.00 | 0.03 | 0.03 | 77 | 1004.4 |
| 20260502041018 | 1 | 331 | 3.2 | 4.8 | 0.00 | 0.03 | 0.03 | 78 | 1004.5 |
| 20260502040518 | 1 | 318 | 4.8 | 6.4 | 0.00 | 0.03 | 0.03 | 77 | 1004.4 |
| 20260502040018 | 1 | 331 | 4.8 | 6.4 | 0.00 | 0.03 | 0.03 | 77 | 1004.4 |
| 20260502035518 | 1 | 316 | 3.2 | 6.4 | 0.00 | 0.03 | 0.03 | 77 | 1004.5 |
| 20260502035018 | 1 | 332 | 3.2 | 8.0 | 0.00 | 0.03 | 0.03 | 76 | 1004.4 |
| 20260502034518 | 1 | 342 | 4.8 | 6.4 | 0.00 | 0.03 | 0.03 | 76 | 1004.5 |
| 20260502034018 | 1 | 355 | 4.8 | 9.7 | 0.00 | 0.03 | 0.03 | 76 | 1004.5 |
| 20260502033518 | 1 | 349 | 4.8 | 6.4 | 0.00 | 0.03 | 0.03 | 76 | 1004.5 |
| 20260502033019 | 1 | 0 | 3.2 | 8.0 | 0.00 | 0.03 | 0.03 | 77 | 1004.5 |
| 20260502032518 | 1 | 347 | 3.2 | 8.0 | 0.00 | 0.03 | 0.03 | 76 | 1004.5 |
| 20260502032018 | 1 | 338 | 4.8 | 8.0 | 0.00 | 0.03 | 0.03 | 76 | 1004.5 |
| 20260502031518 | 1 | 355 | 4.8 | 6.4 | 0.00 | 0.03 | 0.03 | 76 | 1004.4 |
| 20260502031018 | 1 | 342 | 4.8 | 6.4 | 0.00 | 0.03 | 0.03 | 76 | 1004.5 |
| 20260502030518 | 1 | 348 | 4.8 | 6.4 | 0.00 | 0.03 | 0.03 | 76 | 1004.5 |
| 20260502030018 | 1 | 348 | 3.2 | 11.3 | 0.00 | 0.03 | 0.03 | 76 | 1004.5 |
| 20260502025519 | 1 | 355 | 4.8 | 4.8 | 0.00 | 0.03 | 0.03 | 76 | 1004.5 |
| 20260502025018 | 1 | 348 | 4.8 | 6.4 | 0.00 | 0.03 | 0.03 | 75 | 1004.5 |
| 20260502024518 | 1 | 355 | 4.8 | 8.0 | 0.00 | 0.03 | 0.03 | 75 | 1004.5 |
| 20260502024018 | 1 | 350 | 4.8 | 8.0 | 0.00 | 0.03 | 0.03 | 75 | 1004.5 |
| 20260502023518 | 1 | 0 | 4.8 | 9.7 | 0.00 | 0.03 | 0.03 | 75 | 1004.6 |
| 20260502023019 | 1 | 350 | 3.2 | 6.4 | 0.00 | 0.03 | 0.03 | 76 | 1004.5 |
| 20260502022518 | 1 | 355 | 3.2 | 6.4 | 0.00 | 0.03 | 0.03 | 76 | 1004.6 |
| 20260502022018 | 1 | 5 | 4.8 | 6.4 | 0.00 | 0.03 | 0.03 | 75 | 1004.6 |
| 20260502021518 | 1 | 0 | 4.8 | 8.0 | 0.00 | 0.03 | 0.03 | 74 | 1004.5 |
| 20260502021018 | 1 | 0 | 4.8 | 8.0 | 0.00 | 0.03 | 0.03 | 74 | 1004.5 |
| 20260502020518 | 1 | 355 | 3.2 | 6.4 | 0.00 | 0.03 | 0.03 | 74 | 1004.5 |
| 20260502020018 | 1 | 344 | 3.2 | 6.4 | 0.00 | 0.03 | 0.03 | 73 | 1004.4 |
| 20260502015519 | 1 | 346 | 4.8 | 6.4 | 0.00 | 0.03 | 0.03 | 73 | 1004.5 |
| 20260502015019 | 1 | 337 | 4.8 | 8.0 | 0.00 | 0.03 | 0.03 | 73 | 1004.4 |
| 20260502014519 | 1 | 344 | 3.2 | 6.4 | 0.00 | 0.03 | 0.03 | 73 | 1004.4 |
| 20260502014019 | 1 | 340 | 3.2 | 6.4 | 0.00 | 0.03 | 0.03 | 72 | 1004.5 |
| 20260502013519 | 1 | 337 | 3.2 | 6.4 | 0.00 | 0.03 | 0.03 | 72 | 1004.4 |
| 20260502013019 | 1 | 338 | 3.2 | 4.8 | 0.00 | 0.03 | 0.03 | 72 | 1004.4 |
| 20260502012519 | 1 | 336 | 3.2 | 4.8 | 0.00 | 0.03 | 0.03 | 73 | 1004.3 |
| 20260502012019 | 1 | 328 | 3.2 | 8.0 | 0.00 | 0.03 | 0.03 | 72 | 1004.2 |
| 20260502011519 | 1 | 351 | 3.2 | 4.8 | 0.00 | 0.03 | 0.03 | 72 | 1004.2 |
| 20260502011019 | 1 | 344 | 3.2 | 8.0 | 0.00 | 0.03 | 0.03 | 72 | 1004.1 |
| 20260502010519 | 1 | 5 | 3.2 | 8.0 | 0.00 | 0.03 | 0.03 | 72 | 1004.1 |
| 20260502010020 | 1 | 348 | 3.2 | 6.4 | 0.00 | 0.03 | 0.03 | 72 | 1004.1 |
| 20260502005519 | 1 | 349 | 3.2 | 6.4 | 0.00 | 0.03 | 0.03 | 72 | 1004.0 |
| 20260502005019 | 1 | 355 | 3.2 | 4.8 | 0.00 | 0.03 | 0.03 | 71 | 1004.0 |
| 20260502004519 | 1 | 355 | 3.2 | 4.8 | 0.00 | 0.03 | 0.03 | 71 | 1003.9 |
| 20260502004019 | 1 | 5 | 3.2 | 6.4 | 0.00 | 0.03 | 0.03 | 70 | 1003.9 |
| 20260502003519 | 2 | 0 | 3.2 | 6.4 | 0.00 | 0.03 | 0.03 | 70 | 1003.8 |
| 20260502003019 | 2 | 355 | 3.2 | 4.8 | 0.00 | 0.03 | 0.03 | 70 | 1003.8 |
| 20260502002519 | 2 | 0 | 3.2 | 6.4 | 0.00 | 0.03 | 0.03 | 70 | 1003.9 |
| 20260502002019 | 2 | 345 | 3.2 | 4.8 | 0.00 | 0.03 | 0.03 | 68 | 1003.8 |
| 20260502001519 | 2 | 343 | 4.8 | 6.4 | 0.00 | 0.03 | 0.03 | 69 | 1003.8 |
| 20260502001019 | 2 | 345 | 4.8 | 8.0 | 0.00 | 0.03 | 0.03 | 67 | 1003.8 |
| 20260502000519 | 2 | 11 | 4.8 | 6.4 | 0.00 | 0.03 | 0.03 | 67 | 1003.7 |
| 20260502000019 | 2 | 350 | 4.8 | 9.7 | 0.00 | 0.03 | 0.03 | 66 | 1003.7 |
| 20260501235519 | 2 | 355 | 6.4 | 8.0 | 0.00 | 0.03 | 0.03 | 65 | 1003.6 |
| 20260501235019 | 2 | 341 | 6.4 | 14.5 | 0.00 | 0.03 | 0.03 | 64 | 1003.7 |
| 20260501234519 | 2 | 345 | 4.8 | 12.9 | 0.00 | 0.03 | 0.03 | 64 | 1003.6 |